アトラス彗星

C/2024 G7 ( ATLAS )

English version
Home page
Updated on May 2, 2025

---------------------------------------------------------------------

・ プロフィール

発見日 2024年4月3日
発見光度 19.4等
発見者 Asteroid Terrestrial-Impact Last Alert System (ATLAS) search program

・ 写真集

・ 軌道要素

Epoch 2025 May 5.0 TT = JDT 2460800.5
T 2025 Feb. 10.12824 TT                                 Payne
q   6.0276768            (2000.0)            P               Q
z  -0.0003182      Peri.  289.65759     -0.19973176     -0.96748464
 +/-0.0000060      Node   191.96101     -0.34373750     -0.07912306
e   1.0019181      Incl.  131.51605     -0.91757929     +0.24023534
From 79 observations 2024 Apr. 3-2025 Apr. 27, mean residual 0".5.

・ 光度変化

        m1 = 7.0 + 5 logΔ + 10.0 log r

---------------------------------------------------------------------

軌道要素はM.P.E.C. 2025-J08に掲載されたものです。
光度グラフはComet for Windowsで作成したものです。

---------------------------------------------------------------------

Copyright(C) Seiichi Yoshida (comet@aerith.net). All rights reserved.